Change the Weather History Date:

Sunday, March 2, 2014

  Actual Average Record
Temperature  
Mean Temperature 13 °F -  
Max Temperature 26 °F 31 °F 48 °F (1997)
Min Temperature 0 °F 6 °F -16 °F (2001)
Degree Days  
Heating Degree Days 52    
Moisture  
Dew Point 9 °F    
Average Humidity 65    
Maximum Humidity 81    
Minimum Humidity 46    
Precipitation  
Precipitation 0.00 in - - ()
Sea Level Pressure  
Sea Level Pressure 30.03 in    
Wind  
Wind Speed 6 mph (NW)    
Max Wind Speed 14 mph    
Max Gust Speed -    
Visibility 6 miles    
Events Snow    
Averages and records for this station are not official NWS values.
T = Trace of Precipitation, MM = Missing Value Source: NWS Daily Summary

Daily Weather History Graph

Daily Weather History Graph

Search for Another Location

Airport or City:

Trip Planner

Search our weather history database for the weather conditions in past years. The results will help you decide how hot, cold, wet, or windy it might be!

Date:

Astronomy

Mar. 02, 2014 Rise Set
Actual Time 6:21 AM EST 5:35 PM EST
Civil Twilight 5:52 AM EST 6:04 PM EST
Nautical Twilight 5:19 AM EST 6:38 PM EST
Astronomical Twilight 4:45 AM EST 7:12 PM EST
Moon 6:46 AM EST (3/2) 7:34 PM EST (3/2)
Length of Visible Light 12h 12m
Length of Day
11h 13m
Waxing Crescent, 3% of the Moon is Illuminated
Mar 2
Waxing Crescent
Mar 8
First Quarter
Mar 16
Full
Mar 23
Last Quarter
Mar 30
New

Hourly Weather History & Observations

Time (EST) Temp. Windchill Dew Point Humidity Pressure Visibility Wind Dir Wind Speed Gust Speed Precip Events Conditions
12:52 AM 23.0 °F 18.4 °F 10.9 °F 60% 29.99 in 10.0 mi West 3.5 mph - N/A   Scattered Clouds
1:52 AM 23.0 °F - 12.0 °F 63% 29.98 in 10.0 mi Calm Calm - N/A   Overcast
2:52 AM 25.0 °F 18.1 °F 12.0 °F 58% 29.97 in 10.0 mi WNW 5.8 mph - N/A   Overcast
3:52 AM 26.1 °F 19.4 °F 10.9 °F 53% 29.98 in 10.0 mi WNW 5.8 mph - N/A   Mostly Cloudy
4:52 AM 25.0 °F 16.3 °F 17.1 °F 72% 30.01 in 5.0 mi West 8.1 mph - N/A   Haze
5:04 AM 25.0 °F 16.3 °F 18.0 °F 75% 29.96 in 1.8 mi WNW 8.1 mph - 0.00 in Snow Light Snow
5:17 AM 24.1 °F 17.0 °F 18.0 °F 77% 29.97 in 1.2 mi West 5.8 mph - 0.00 in Snow Light Snow
5:26 AM 24.1 °F 19.7 °F 19.0 °F 81% 29.97 in 1.8 mi SW 3.5 mph - 0.00 in Snow Light Snow
5:34 AM 24.1 °F 18.2 °F 19.0 °F 81% 29.97 in 2.5 mi West 4.6 mph - 0.00 in   Haze
5:43 AM 24.1 °F 17.0 °F 19.0 °F 81% 29.97 in 2.0 mi West 5.8 mph - 0.00 in Snow Light Snow
5:52 AM 24.1 °F 19.7 °F 18.0 °F 77% 30.02 in 2.0 mi West 3.5 mph - 0.00 in Snow Light Snow
6:03 AM 23.0 °F 17.0 °F 18.0 °F 81% 29.96 in 1.8 mi WNW 4.6 mph - 0.00 in Snow Light Snow
6:12 AM 23.0 °F 17.0 °F 18.0 °F 81% 29.96 in 2.5 mi WNW 4.6 mph - 0.00 in Snow Light Snow
6:40 AM 23.0 °F 12.4 °F 15.1 °F 72% 29.98 in 6.0 mi WNW 10.4 mph - 0.00 in   Haze
6:52 AM 21.9 °F 14.5 °F 14.0 °F 72% 30.04 in 10.0 mi West 5.8 mph - 0.00 in   Mostly Cloudy
7:29 AM 19.0 °F 5.6 °F 10.9 °F 71% 30.01 in 6.0 mi North 13.8 mph - N/A   Haze
7:41 AM 19.0 °F 6.8 °F 10.0 °F 68% 30.02 in 1.8 mi North 11.5 mph - 0.00 in Snow Light Snow
7:52 AM 18.0 °F 5.4 °F 9.0 °F 68% 30.07 in 1.0 mi North 11.5 mph - 0.00 in Snow Light Snow
8:06 AM 18.0 °F 4.8 °F 8.1 °F 65% 30.02 in 1.8 mi North 12.7 mph - 0.00 in Snow Light Snow
8:19 AM 18.0 °F 4.8 °F 8.1 °F 65% 30.02 in 2.5 mi North 12.7 mph - 0.00 in Snow Light Snow
8:30 AM 18.0 °F 4.2 °F 8.1 °F 65% 30.03 in 1.2 mi North 13.8 mph - 0.00 in Snow Light Snow
8:52 AM 17.1 °F 5.8 °F 7.0 °F 65% 30.10 in 1.2 mi North 9.2 mph - 0.00 in Snow Light Snow
9:28 AM 19.0 °F 9.0 °F 8.1 °F 62% 30.04 in 2.5 mi NNE 8.1 mph - 0.00 in Snow Light Snow
9:37 AM 19.0 °F 10.0 °F 7.0 °F 59% 30.03 in 3.0 mi North 6.9 mph - 0.00 in Snow Light Snow
9:42 AM 19.0 °F 10.0 °F 7.0 °F 59% 30.04 in 2.5 mi Variable 6.9 mph - 0.00 in Snow Light Snow
9:52 AM 18.0 °F 7.7 °F 7.0 °F 62% 30.10 in 2.5 mi North 8.1 mph - 0.00 in Snow Light Snow
9:56 AM 18.0 °F 7.7 °F 7.0 °F 62% 30.04 in 1.8 mi North 8.1 mph - 0.00 in Snow Light Snow
10:13 AM 19.0 °F 10.0 °F 8.1 °F 62% 30.03 in 2.0 mi NNW 6.9 mph - 0.00 in Snow Light Snow
10:26 AM 19.0 °F 8.2 °F 7.0 °F 59% 30.02 in 2.5 mi North 9.2 mph - 0.00 in Snow Light Snow
10:33 AM 19.0 °F 11.1 °F 6.1 °F 57% 30.02 in 3.0 mi Variable 5.8 mph - 0.00 in   Haze
10:52 AM 19.0 °F 8.2 °F 7.0 °F 59% 30.08 in 6.0 mi North 9.2 mph - 0.00 in   Haze
11:52 AM 19.0 °F 11.1 °F 5.0 °F 54% 30.09 in 10.0 mi North 5.8 mph - N/A   Overcast
12:52 PM 19.9 °F 13.4 °F 3.9 °F 50% 30.05 in 10.0 mi ENE 4.6 mph - N/A   Overcast
1:52 PM 21.9 °F 15.7 °F 3.9 °F 46% 30.01 in 10.0 mi WSW 4.6 mph - N/A   Overcast
2:52 PM 19.9 °F 7.3 °F 3.9 °F 50% 30.02 in 10.0 mi NW 12.7 mph - N/A   Overcast
3:52 PM 19.9 °F 9.3 °F 3.9 °F 50% 30.04 in 10.0 mi West 9.2 mph - N/A   Overcast
4:52 PM 19.0 °F 9.0 °F 3.9 °F 52% 30.04 in 10.0 mi NW 8.1 mph - N/A   Mostly Cloudy
5:52 PM 17.1 °F 8.7 °F 5.0 °F 59% 30.03 in 10.0 mi WNW 5.8 mph - N/A   Scattered Clouds
6:52 PM 14.0 °F - 3.9 °F 64% 30.05 in 10.0 mi Calm Calm - N/A   Scattered Clouds
7:52 PM 12.0 °F 2.7 °F -2.0 °F 53% 30.06 in 10.0 mi WNW 5.8 mph - N/A   Clear
8:52 PM 7.0 °F - -2.0 °F 67% 30.07 in 10.0 mi Calm Calm - N/A   Mostly Cloudy
9:52 PM 3.9 °F - -2.9 °F 73% 30.08 in 10.0 mi Calm Calm - N/A   Clear
10:52 PM -0.0 °F - -5.1 °F 79% 30.09 in 10.0 mi Calm Calm - N/A   Partly Cloudy
11:52 PM 1.9 °F - -4.0 °F 76% 30.08 in 10.0 mi Calm Calm - N/A   Overcast